Location: Marcé
(47.5801°N, 0.3280°W)
Time: 22:16:15
(UTC+01:00)

Transit 2A - Pass Details

Date: 03 December 2021
Orbit: 591 x 967 km, 66.7° (Epoch: 16 January)

Event Time Altitude Azimuth Distance (km) Brightness Sun altitude
Rises 00:11:13 0° 170° (S) 3,271 - -63.3°
Reaches altitude 10° 00:13:59 10° 157° (SSE) 2,412 - -63.5°
Maximum altitude 00:18:18 23° 106° (ESE) 1,753 - -63.7°
Drops below altitude 10° 00:22:56 10° 56° (NE) 2,605 - -63.9°
Sets 00:26:01 0° 43° (NE) 3,598 - -64.0°
